Curtin, Australia

12:15 AM AWST on August 22, 2017 (GMT +0800)
Curtin

Weather History for YCIN - October, 2012

Change the Weather History Date:

Thursday, October 25, 2012

  Actual Average Record
Temperature  
Mean Temperature 85 °F -  
Max Temperature 97 °F - - ()
Min Temperature 73 °F - - ()
Cooling Degree Days 20    
Growing Degree Days 35 (Base 50)    
Moisture  
Dew Point 67 °F    
Average Humidity 59    
Maximum Humidity 83    
Minimum Humidity 25    
Precipitation  
Precipitation 0.00 in - - ()
Sea Level Pressure  
Sea Level Pressure 29.81 in    
Wind  
Wind Speed 6 mph ()    
Max Wind Speed 15 mph    
Max Gust Speed -    
T = Trace of Precipitation, MM = Missing Value Source: Averaged Metar Reports

Daily Weather History Graph

Daily Weather History Graph

Search for Another Location

Airport or City:

Trip Planner

Search our weather history database for the weather conditions in past years. The results will help you decide how hot, cold, wet, or windy it might be!

Date:

Astronomy

Oct. 25, 2012 Rise Set
Actual Time 5:09 AM AWST 5:48 PM AWST
Civil Twilight 4:47 AM AWST 6:10 PM AWST
Nautical Twilight 4:21 AM AWST 6:36 PM AWST
Astronomical Twilight 3:54 AM AWST 7:03 PM AWST
Moon 2:04 PM AWST (10/25) 1:52 AM AWST (10/25)
Length of Visible Light 13h 23m
Length of Day
12h 38m
Waxing Gibbous, 80% of the Moon is Illuminated
Oct 25
Waxing Gibbous
Oct 30
Full
Nov 7
Last Quarter
Nov 14
New
Nov 20
First Quarter

Hourly Weather History & Observations

Time (AWST) Temp. Heat Index Dew Point Humidity Pressure Visibility Wind Dir Wind Speed Gust Speed Precip Events Conditions
12:00 AM 79 °F - 68 °F 62% 29.79 in - WNW 2.3 mph - -  
12:00 AM 78.8 °F - 68.0 °F 69% 29.80 in - WNW 2.3 mph - N/A   Unknown
1:00 AM 80.6 °F 84.6 °F 71.6 °F 74% 29.77 in - NW 3.5 mph - N/A   Unknown
2:00 AM 80.6 °F 85.4 °F 73.4 °F 79% 29.77 in - West 5.8 mph - N/A   Unknown
3:00 AM 77.0 °F - 71.6 °F 83% 29.77 in - WSW 15.0 mph - N/A   Unknown
4:00 AM 75.2 °F - 68.0 °F 78% 29.80 in - South 12.7 mph - N/A   Unknown
5:00 AM 77.0 °F - 64.4 °F 65% 29.80 in - South 10.4 mph - N/A   Unknown
6:00 AM 78 °F - 65 °F 56% 29.85 in - East 11.5 mph - -  
6:00 AM 77.0 °F - 66.2 °F 69% 29.86 in - East 11.5 mph - N/A   Unknown
7:00 AM 80.6 °F 83.2 °F 68.0 °F 65% 29.86 in - West 6.9 mph - N/A   Unknown
8:00 AM 78.8 °F - 69.8 °F 74% 29.86 in - SE 2.3 mph - N/A   Unknown
9:00 AM 79 °F - 69 °F 63% 29.86 in - SE 8.1 mph - -  
9:00 AM 78.8 °F - 68.0 °F 69% 29.86 in - SE 8.1 mph - N/A   Unknown
10:00 AM 82.4 °F 85.4 °F 68.0 °F 62% 29.86 in - SE 5.8 mph - N/A   Unknown
11:00 AM 86.0 °F 89.4 °F 68.0 °F 55% 29.83 in - East 8.1 mph - N/A   Unknown
12:00 PM 86 °F - 69 °F 47% 29.81 in - East 4.6 mph - -  
12:00 PM 86.0 °F 90.4 °F 69.8 °F 58% 29.80 in - East 4.6 mph - N/A   Unknown
1:00 PM 87.8 °F 92.6 °F 69.8 °F 55% 29.80 in - East 2.3 mph - N/A   Unknown
2:00 PM 91.4 °F 95.4 °F 68.0 °F 46% 29.77 in - East 4.6 mph - N/A   Unknown
3:00 PM 95 °F - 63 °F 25% 29.74 in - East 8.1 mph - -  
3:00 PM 95.0 °F 96.0 °F 62.6 °F 34% 29.74 in - East 8.1 mph - N/A   Unknown
4:00 PM 95.0 °F 96.0 °F 62.6 °F 34% 29.74 in - East 8.1 mph - N/A   Unknown
5:00 PM 91.4 °F 92.1 °F 62.6 °F 38% 29.74 in - ENE 6.9 mph - N/A   Unknown
6:00 PM 86.0 °F 88.2 °F 66.2 °F 51% 29.77 in - Calm Calm - N/A   Unknown
7:00 PM 82.4 °F 85.4 °F 68.0 °F 62% 29.80 in - Calm Calm - N/A   Unknown
8:00 PM 82.4 °F 83.9 °F 64.4 °F 54% 29.83 in - South 9.2 mph - N/A   Unknown
9:00 PM 80 °F - 64 °F 50% 29.84 in - South 5.8 mph - -  
9:00 PM 80.6 °F 82.3 °F 64.4 °F 58% 29.86 in - South 5.8 mph - N/A   Unknown
10:00 PM 78.8 °F - 66.2 °F 65% 29.83 in - ESE 5.8 mph - N/A   Unknown
11:00 PM 80.6 °F 82.7 °F 66.2 °F 61% 29.80 in - ESE 5.8 mph - N/A   Unknown